Find Starlink 33729

NORAD ID: 63647 Int'l Des: 2025-083 Owner: SPXS Country: US Constellation: starlink operational
LEOCIRCULAR

实时位置

正在加载3D地球...

关于 Starlink 33729

正在加载描述...

即将过境

Passes for default location (London). Set your location on the main map for personalized predictions.

高度历史

Loading altitude history...

两行轨道根数

1 63647U 25083P 26125.18748063 .00036071 00000-0 13125-2 0 9998
2 63647 43.0008 46.4728 0002034 253.1393 106.9236 15.27614495 58700
Epoch: May 5, 2026 • Age: 6 hours

当前状态

高度 492.2 km
速度 7.62 km/s
星下点 -36.53°S, 99.83°W
发射日期 Apr 25, 2025
运行时间 1 years
类型 internet

技术详情

分类 Payload
质量 575.00 kg
干质量 530.00 kg
总质量 575.00 kg
长度 0.30 m
直径 4.10 m
跨度 29.00 m
形状 Box + pan
制造商 SPXS
平台类型 Starlink V2MO
阶段状态 In Orbit
所有者/国家 SPXS/US

Most Searched